Flag for China Weather past 2 weeks in Kashgar, Xinjiang, China

Now
66 °F

Duststorm.


Feels Like: 66 °F
Forecast: 61 / 67 °F
Wind: 15 mph from East

Location: Kashi Airport

Current Time: Sep 21, 2014 at 6:59:22 AM

Latest Report: Sep 21, 2014 at 6:00 AM


Visibility: 1 mi

Pressure: 30.07 "Hg

Humidity: 30%

Dew point: 34 °F

Location of KashgarLocation

Historic Weather in Kashgar — Graph

°F

Kashgar temperature yesterday

Maximum temperature yesterday: 82 °F (at 4:00 PM)
Minimum temperature yesterday: 70 °F (at 8:00 AM)
Average temperature yesterday: 76 °F

Past Weeks' High & Low Weather Summary

 TemperatureHumidityPressure
High86 °F (Sep 11, 5:00 PM)88% (Sep 9, 9:00 AM)30.12 "Hg (Sep 9, 9:00 AM)
Low57 °F (Sep 9, 9:00 AM)9% (Sep 20, 4:00 PM)29.77 "Hg (Sep 11, 6:00 PM)
Average71 °F38%29.98 "Hg
* Reported Sep 6 6:00 AM — Sep 21 6:00 AM, Kashgar, Weather by CustomWeather, © 2014

Note: Actual official high and low records may vary slightly from our data, if they occured in-between our weather recording intervals... More about our weather records

Advertising

Kashgar weather history for previous 24 hours

 ConditionsComfort  
Time TempWeatherWind HumidityBarometerVisibility
6:00 AM
Sep 21
66 °FDuststorm.15 mph30%30.07 "Hg1 mi
5:00 AM68 °FDuststorm.10 mph23%30.04 "Hg3 mi
4:00 AM70 °FClear.10 mph18%30.04 "Hg10 mi
3:00 AM72 °FPassing clouds.3 mph16%30.04 "HgN/A
2:00 AM72 °FMild.No wind14%30.04 "Hg2 mi
1:00 AM72 °FClear.3 mph14%30.01 "Hg10 mi
9:00 PM
Sep 20
79 °FPassing clouds.8 mph15%29.92 "HgN/A
8:00 PM81 °FScattered clouds.15 mph14%29.92 "HgN/A
7:00 PM81 °FPassing clouds.8 mph13%29.89 "HgN/A
6:00 PM82 °FScattered clouds.8 mph11%29.89 "HgN/A
5:00 PM82 °FPassing clouds.8 mph11%29.89 "HgN/A
4:00 PM82 °FPassing clouds.3 mph9%29.92 "HgN/A
3:00 PM81 °FPassing clouds.6 mph11%29.95 "HgN/A
2:00 PM79 °FPassing clouds.8 mph10%29.95 "HgN/A
1:00 PM79 °FPassing clouds.10 mph10%29.98 "HgN/A
12:00 PM77 °FSunny.17 mph10%29.98 "Hg10 mi
11:00 AM73 °FSunny.15 mph11%29.98 "Hg10 mi
10:00 AM70 °FSunny.17 mph12%29.98 "Hg10 mi
9:00 AM70 °FSunny.31 mph13%29.92 "Hg10 mi
8:00 AM70 °FClear.26 mph12%29.89 "Hg10 mi
7:00 AM72 °FClear.31 mph12%29.86 "Hg10 mi
6:00 AM72 °FClear.22 mph13%29.89 "Hg10 mi
Weather by CustomWeather, © 2014

See weather overviewHow to use our weather pages